N5PLO-10 Weather Reports


time (UTC)temp
C
wind
direction
speed
KPH
gust
KPH
rain 1hr
cm
rain 24hr
cm
rain mn
cm
humidity
%
barometer
mb
20260502170430 22 64 1.6 4.8 0.18 0.18 0.18 54 1024.5
20260502163913 23 359 1.6 3.2 0.00 0.15 0.15 54 1024.4
20260502163410 23 295 3.2 4.8 0.00 0.15 0.15 57 1024.3
20260502162908 22 33 1.6 3.2 0.00 0.15 0.15 60 1024.1
20260502162404 21 346 3.2 8.0 0.00 0.15 0.15 59 1024.0
20260502161901 21 21 1.6 3.2 0.00 0.15 0.15 61 1024.1
20260502161357 21 328 3.2 4.8 0.00 0.15 0.15 59 1023.8
20260502160855 22 298 1.6 3.2 0.00 0.15 0.15 61 1023.8
20260502160353 22 11 1.6 3.2 0.00 0.15 0.15 61 1023.6
20260502152328 19 226 1.6 3.2 0.00 0.13 0.13 76 1023.2
20260502151826 18 36 1.6 4.8 0.00 0.13 0.13 75 1023.3
20260502151322 19 69 3.2 8.0 0.00 0.13 0.13 74 1023.0
20260502150820 18 262 1.6 8.0 0.00 0.13 0.13 76 1023.1
20260502150316 18 1 1.6 4.8 0.00 0.13 0.13 77 1023.2
20260502130705 12 280 1.6 3.2 0.00 0.10 0.10 99 1020.6
20260502130203 11 333 1.6 3.2 0.00 0.10 0.10 99 1020.6
20260502123648 11 276 0.0 1.6 0.00 0.10 0.10 99 1020.2
20260502123145 11 348 1.6 3.2 0.00 0.10 0.10 99 1020.3
20260502122641 11 283 0.0 0.0 0.00 0.10 0.10 99 1020.2
20260502122138 11 293 0.0 0.0 0.00 0.10 0.10 99 1020.0
20260502121636 11 313 0.0 0.0 0.00 0.10 0.10 99 1020.0
20260502121133 11 335 1.6 1.6 0.00 0.10 0.10 99 1019.9
20260502120630 11 306 0.0 0.0 0.00 0.10 0.10 99 1020.1
20260502120127 11 306 0.0 0.0 0.00 0.10 0.10 99 1019.9
20260502115624 11 304 0.0 0.0 0.00 0.10 0.10 99 1019.9
20260502115120 11 327 1.6 3.2 0.18 0.10 0.10 99 1019.9
20260502114616 11 339 0.0 1.6 0.18 0.10 0.10 99 1019.7
20260502114114 10 353 3.2 3.2 0.00 0.08 0.08 99 1019.8
20260502113611 10 284 1.6 4.8 0.00 0.08 0.08 99 1019.6
20260502113110 10 307 0.0 0.0 0.00 0.08 0.08 99 1019.7
20260502112607 10 319 0.0 1.6 0.00 0.08 0.08 99 1019.7
20260502112104 10 298 0.0 0.0 0.00 0.08 0.08 99 1019.6
20260502111601 10 313 0.0 0.0 0.00 0.08 0.08 99 1019.5
20260502111059 10 305 0.0 0.0 0.00 0.08 0.08 99 1019.6
20260502110556 11 274 0.0 1.6 0.00 0.08 0.08 99 1019.5
20260502110054 11 282 0.0 1.6 0.00 0.08 0.08 99 1019.5
20260502105551 11 287 0.0 1.6 0.00 0.08 0.08 99 1019.5
20260502105048 11 320 0.0 3.2 0.00 0.08 0.08 99 1019.4
20260502104545 11 328 1.6 1.6 0.00 0.08 0.08 99 1019.3
20260502104043 11 252 0.0 1.6 0.00 0.08 0.08 99 1019.1
20260502103541 11 300 0.0 0.0 0.00 0.08 0.08 99 1019.1
20260502103038 11 316 0.0 1.6 0.00 0.08 0.08 99 1019.2
20260502102534 11 331 0.0 0.0 0.00 0.08 0.08 99 1019.3
20260502102032 11 311 0.0 0.0 0.00 0.08 0.08 99 1019.2
20260502101529 11 280 0.0 1.6 0.00 0.08 0.08 99 1019.0
20260502101027 11 301 0.0 0.0 0.00 0.08 0.08 99 1019.0
20260502100526 11 308 0.0 0.0 0.00 0.08 0.08 99 1018.9
20260502091500 11 318 0.0 0.0 0.00 0.05 0.05 99 1018.0
20260502090958 11 318 0.0 0.0 0.00 0.05 0.05 99 1017.9
20260502090454 11 318 0.0 0.0 0.00 0.05 0.05 99 1017.7
20260502071349 12 343 0.0 0.0 0.00 0.03 0.03 99 1018.0
20260502070847 12 317 0.0 1.6 0.00 0.03 0.03 99 1018.2
20260502070344 12 328 0.0 1.6 0.00 0.03 0.03 99 1018.3
20260502065844 12 307 0.0 0.0 0.00 0.03 0.03 99 1018.1
20260502065341 12 327 0.0 1.6 0.00 0.03 0.03 99 1017.8
20260502064839 12 325 0.0 3.2 0.00 0.03 0.03 99 1017.7
20260502064337 12 345 3.2 4.8 0.00 0.03 0.03 99 1017.8
20260502063833 12 332 1.6 1.6 0.00 0.03 0.03 99 1018.0
20260502063331 12 324 0.0 3.2 0.00 0.03 0.03 99 1017.8
20260502062828 12 349 3.2 3.2 0.00 0.03 0.03 99 1017.9
20260502062326 12 329 0.0 1.6 0.00 0.03 0.03 99 1017.8
20260502061825 12 58 0.0 3.2 0.00 0.03 0.03 99 1017.9
20260502061322 12 305 0.0 1.6 0.00 0.03 0.03 99 1017.8
20260502060817 12 12 0.0 1.6 0.13 0.03 0.03 99 1017.8
20260502060313 12 49 0.0 1.6 0.13 0.03 0.03 99 1017.8
20260502055811 12 354 1.6 4.8 0.00 0.00 0.00 99 1017.9
20260502055308 12 337 0.0 4.8 0.00 0.00 0.00 99 1017.7
20260502054808 12 313 1.6 3.2 0.00 0.00 0.00 99 1017.9
20260502054305 12 42 1.6 3.2 0.00 0.00 0.00 99 1017.8
20260502053802 12 323 1.6 3.2 0.00 0.00 0.00 99 1017.8
20260502053259 12 304 0.0 1.6 0.00 0.00 0.00 99 1018.0
20260502052757 12 309 1.6 1.6 0.00 0.00 0.00 99 1017.8
20260502052255 12 319 1.6 8.0 0.00 0.00 0.00 99 1017.9
20260502051752 12 321 0.0 3.2 0.00 0.00 0.00 99 1018.0
20260502051251 12 315 3.2 9.7 0.00 0.00 0.00 99 1017.8
20260502050747 12 335 0.0 1.6 0.00 0.00 0.00 99 1018.0
20260502050243 12 342 1.6 3.2 0.00 0.00 0.00 99 1017.9
20260502045740 12 29 4.8 9.7 0.00 0.74 0.74 99 1017.9
20260502045237 12 356 3.2 4.8 0.00 0.74 0.74 99 1017.8
20260502044734 12 292 0.0 1.6 0.00 0.74 0.74 99 1017.7
20260502044230 12 253 1.6 3.2 0.00 0.74 0.74 99 1017.7
20260502043728 12 11 1.6 4.8 0.18 0.74 0.74 99 1017.6
20260502043225 12 307 0.0 3.2 0.00 0.71 0.71 99 1017.5
20260502042724 12 348 1.6 4.8 0.00 0.71 0.71 99 1017.8
20260502042222 12 357 1.6 12.9 0.00 0.71 0.71 99 1017.8
20260502041719 12 338 0.0 1.6 0.00 0.71 0.71 99 1017.9
20260502041217 12 307 0.0 3.2 0.00 0.71 0.71 99 1018.1
20260502040713 12 349 1.6 3.2 0.00 0.71 0.71 99 1018.2
20260502040210 12 312 0.0 1.6 0.00 0.71 0.71 99 1018.1
20260502035706 12 326 0.0 1.6 0.00 0.71 0.71 99 1018.2
20260502035203 12 269 1.6 1.6 0.00 0.71 0.71 99 1018.0
20260502034701 12 318 0.0 3.2 0.00 0.71 0.71 99 1018.0
20260502034159 12 328 1.6 8.0 0.00 0.71 0.71 99 1017.9
20260502033657 12 306 1.6 3.2 0.00 0.71 0.71 99 1017.8
20260502033154 12 299 0.0 1.6 0.00 0.71 0.71 99 1017.7
20260502032650 12 341 1.6 4.8 0.13 0.71 0.71 99 1017.7
20260502032147 12 287 0.0 1.6 0.13 0.71 0.71 99 1017.7
20260502031645 13 317 0.0 1.6 0.00 0.71 0.71 99 1017.5
20260502031142 13 323 0.0 8.0 0.00 0.71 0.71 99 1017.4
20260502030641 12 328 0.0 4.8 0.00 0.71 0.71 99 1017.3
20260502030139 13 317 1.6 3.2 0.00 0.71 0.71 99 1017.3
20260502025635 13 359 3.2 4.8 0.00 0.71 0.71 99 1016.8
20260502025133 13 343 0.0 8.0 0.00 0.71 0.71 99 1016.9
20260502024631 13 9 0.0 3.2 0.00 0.71 0.71 99 1016.7
20260502024129 13 357 1.6 3.2 0.00 0.71 0.71 99 1016.8
20260502023627 13 338 0.0 8.0 0.00 0.71 0.71 99 1017.0
20260502023124 13 265 0.0 3.2 0.00 0.71 0.71 99 1017.1
20260502022620 13 326 1.6 3.2 0.00 0.71 0.71 99 1016.8
20260502022118 13 325 0.0 1.6 0.18 0.71 0.71 99 1016.9
20260502021615 13 52 3.2 4.8 0.18 0.71 0.71 99 1016.7
20260502021112 13 339 3.2 3.2 0.00 0.66 0.66 99 1016.8
20260502020610 13 2 1.6 3.2 0.00 0.66 0.66 99 1017.0
20260502020106 13 341 3.2 3.2 0.00 0.66 0.66 99 1016.9
20260502015604 13 357 1.6 3.2 0.00 0.66 0.66 99 1016.8
20260502015100 13 320 1.6 3.2 0.00 0.66 0.66 99 1016.9
20260502014557 13 321 3.2 3.2 0.00 0.66 0.66 99 1016.8
20260502014054 13 293 1.6 4.8 0.00 0.66 0.66 99 1016.4
20260502013549 13 248 1.6 3.2 0.00 0.66 0.66 99 1016.4
20260502013046 13 3 0.0 4.8 0.00 0.66 0.66 99 1016.0
20260502012543 13 352 3.2 4.8 0.00 0.66 0.66 99 1016.1
20260502012041 13 316 1.6 3.2 0.00 0.66 0.66 99 1016.1
20260502011538 13 347 1.6 9.7 0.13 0.66 0.66 99 1016.6
20260502011034 13 241 1.6 3.2 0.00 0.66 0.66 99 1016.7
20260502010532 14 325 0.0 3.2 0.00 0.66 0.66 99 1016.5
20260502010028 14 343 4.8 11.3 0.00 0.66 0.66 99 1015.9
20260502005526 14 349 1.6 1.6 0.00 0.66 0.66 99 1015.4
20260502005023 14 301 0.0 1.6 0.00 0.66 0.66 99 1014.7
20260502004519 14 328 0.0 3.2 0.00 0.66 0.66 99 1014.6
20260502004016 14 341 1.6 4.8 0.00 0.66 0.66 99 1015.1
20260502003514 14 340 1.6 3.2 0.00 0.66 0.66 99 1015.4
20260502003010 14 306 0.0 1.6 0.00 0.66 0.66 99 1015.7
20260502002507 14 326 0.0 1.6 0.00 0.66 0.66 99 1015.9
20260502002004 14 313 0.0 0.0 0.00 0.66 0.66 99 1015.6
20260502001501 14 330 1.6 3.2 0.18 0.66 0.66 99 1015.5
20260502000959 15 270 1.6 3.2 0.18 0.66 0.66 99 1015.5
20260502000457 15 300 1.6 1.6 0.00 0.61 0.61 99 1015.7
20260501235953 14 301 0.0 0.0 0.00 0.61 0.61 99 1015.3
20260501235449 14 302 0.0 4.8 0.00 0.61 0.61 99 1015.2
20260501234944 14 341 1.6 3.2 0.00 0.61 0.61 99 1014.7
20260501234441 14 357 4.8 4.8 0.00 0.61 0.61 99 1014.7
20260501233940 14 302 0.0 4.8 0.00 0.61 0.61 99 1014.6
20260501233437 14 43 1.6 3.2 0.00 0.61 0.61 99 1014.6
20260501232933 15 62 3.2 4.8 0.00 0.61 0.61 99 1014.3
20260501232430 15 15 1.6 3.2 0.00 0.61 0.61 99 1014.0
20260501231927 15 298 0.0 1.6 0.13 0.61 0.61 99 1014.4
20260501231426 15 281 0.0 0.0 0.13 0.61 0.61 99 1015.1
20260501230923 15 289 0.0 1.6 0.00 0.61 0.61 99 1015.0
20260501230422 15 346 0.0 3.2 0.00 0.61 0.61 99 1014.5
20260501225919 15 11 0.0 1.6 0.00 0.61 0.61 99 1014.5
20260501225417 15 319 0.0 1.6 0.00 0.61 0.61 99 1014.2
20260501224912 15 35 3.2 4.8 0.00 0.61 0.61 99 1012.9
20260501224410 15 326 0.0 4.8 0.00 0.61 0.61 99 1012.7
20260501223906 15 36 3.2 8.0 0.00 0.61 0.61 99 1012.8
20260501223403 15 353 0.0 4.8 0.00 0.61 0.61 99 1013.2
20260501222858 15 30 0.0 8.0 0.00 0.61 0.61 99 1013.1
20260501222356 15 58 4.8 8.0 0.18 0.61 0.61 99 1013.1
20260501221852 15 9 3.2 11.3 0.18 0.61 0.61 99 1013.4
20260501221350 15 10 1.6 4.8 0.00 0.56 0.56 99 1013.7
20260501220848 15 23 3.2 8.0 0.00 0.56 0.56 99 1014.1
20260501220345 15 329 3.2 4.8 0.00 0.56 0.56 99 1014.3
20260501215841 15 16 4.8 4.8 0.00 0.56 0.56 99 1014.6
20260501215337 15 311 0.0 0.0 0.00 0.56 0.56 99 1014.9
20260501214833 15 350 1.6 3.2 0.00 0.56 0.56 99
20260501214328 15 299 0.0 0.0 0.00 0.56 0.56 99
20260501213825 15 321 0.0 3.2 0.00 0.56 0.56 99
20260501213321 15 286 0.0 4.8 0.00 0.56 0.56 99
20260501212817 15 328 1.6 3.2 0.18 0.56 0.56 99
20260501212314 15 330 0.0 8.0 0.18 0.56 0.56 99
20260501211811 15 307 1.6 3.2 0.00 0.53 0.53 99
20260501211308 15 61 1.6 4.8 0.00 0.53 0.53 99
20260501210805 15 357 1.6 3.2 0.00 0.53 0.53 99
20260501210302 15 346 1.6 4.8 0.00 0.53 0.53 99
20260501205758 15 54 0.0 4.8 0.00 0.53 0.53 99
20260501205255 15 37 3.2 8.0 0.00 0.53 0.53 99
20260501204752 16 273 1.6 3.2 0.00 0.53 0.53 99
20260501204249 16 47 0.0 4.8 0.00 0.53 0.53 99
20260501203745 16 47 1.6 4.8 0.00 0.53 0.53 99
20260501203243 16 359 1.6 3.2 0.00 0.53 0.53 99
20260501202739 16 3 1.6 3.2 0.13 0.53 0.53 99
20260501202236 16 7 1.6 3.2 0.00 0.51 0.51 99
20260501201733 16 335 1.6 3.2 0.00 0.51 0.51 99
20260501201230 16 318 0.0 1.6 0.00 0.51 0.51 99
20260501200727 16 305 0.0 3.2 0.00 0.51 0.51 99
20260501200224 16 288 0.0 3.2 0.00 0.51 0.51 99
20260501195721 16 322 0.0 3.2 0.00 0.51 0.51 99
20260501195217 16 328 1.6 3.2 0.00 0.51 0.51 99
20260501194713 16 41 1.6 3.2 0.00 0.51 0.51 99
20260501194209 16 296 0.0 1.6 0.00 0.51 0.51 99
20260501193706 16 348 0.0 1.6 0.18 0.51 0.51 99
20260501193204 16 38 1.6 3.2 0.18 0.51 0.51 99
20260501192701 16 317 0.0 1.6 0.00 0.48 0.48 99
20260501192158 16 287 0.0 1.6 0.00 0.48 0.48 99
20260501191655 16 286 0.0 1.6 0.00 0.48 0.48 99
20260501191153 16 320 0.0 0.0 0.00 0.48 0.48 99
20260501190649 16 339 0.0 1.6 0.00 0.48 0.48 99
20260501190144 16 333 0.0 1.6 0.00 0.48 0.48 99
20260501185640 16 44 3.2 4.8 0.00 0.48 0.48 99
20260501185136 16 341 0.0 1.6 0.00 0.48 0.48 99
20260501184633 16 286 0.0 1.6 0.13 0.48 0.48 99
20260501184127 16 340 0.0 1.6 0.13 0.48 0.48 99
20260501183625 16 276 1.6 3.2 0.00 0.46 0.46 99
20260501183121 16 125 1.6 8.0 0.00 0.46 0.46 99
20260501182618 16 2 4.8 8.0 0.00 0.46 0.46 99
20260501182114 16 0 0.0 1.6 0.00 0.46 0.46 99
20260501181612 16 19 1.6 3.2 0.00 0.46 0.46 99
20260501181108 16 245 4.8 8.0 0.00 0.46 0.46 99
20260501180607 16 304 1.6 4.8 0.00 0.46 0.46 99
20260501175559 16 21 0.0 1.6 0.00 0.46 0.46 99
20260501175056 16 2 3.2 9.7 0.00 0.46 0.46 99
20260501174553 16 332 0.0 4.8 0.18 0.46 0.46 99
20260501174051 16 339 0.0 3.2 0.18 0.46 0.46 99
20260501173547 16 300 0.0 0.0 0.00 0.43 0.43 99
20260501173044 16 339 0.0 1.6 0.00 0.43 0.43 99
20260501172539 16 317 0.0 0.0 0.00 0.43 0.43 99
20260501172035 16 337 0.0 1.6 0.00 0.43 0.43 99 1014.9